Location: ?????
(30.4294°N, 31.0619°E)
Time: 01:18:41
(UTC+00:00)

Daily predictions for brighter satellites

Satellite Brightness Start Highest point End
(mag) Time Altitude Azimuth Time Altitude Azimuth Time Altitude Azimuth
Cosmos 1980 Rocket 2.5 00:07:05 64° NE 00:07:05 64° NE 00:11:55 10° NNE
Timation 2 Rocket 4.0 00:03:23 10° NNW 00:08:44 71° N 00:08:44 71° N
Cosmos 2061 Rocket 4.0 00:03:01 10° N 00:09:00 80° NNW 00:09:00 80° NNW
Cosmos 2285 Rocket 4.0 00:10:49 78° ESE 00:10:49 78° ESE 00:17:14 10° NNE
CBERS-1 4.4 00:10:06 10° NNE 00:14:29 59° ENE 00:14:29 59° ENE
Skynet4D Del rocket 4.4 00:15:59 61° SSE 00:15:59 61° SSE 00:23:22 10° ESE
GP-B 4.0 00:20:27 10° N 00:23:36 46° NNE 00:23:36 46° NNE
Cosmos 2227 Rocket 2.6 00:19:39 10° NNW 00:23:59 53° NW 00:23:59 53° NW
Cosmos 2369 4.4 00:27:00 43° NW 00:27:00 43° NW 00:31:48 10° N
Cosmos 2278 3.6 00:28:00 77° NW 00:28:00 77° NW 00:33:29 10° NNE
Cosmos 2297 Rocket 3.4 00:22:30 10° NNW 00:25:29 30° NW 00:25:29 30° NW
Cosmos 2056 Rocket 4.0 00:32:17 49° NNW 00:32:17 49° NNW 00:36:24 10° N
Cosmos 2082 3.9 00:35:06 10° NNW 00:40:47 70° ENE 00:44:24 23° SSE
SL-16 R/B 3.3 00:39:15 28° SE 00:41:18 37° ESE 00:46:26 10° NE
MSX 4.0 00:36:36 10° NNE 00:42:22 67° ESE 00:43:59 46° SSE
IRS-1C 4.2 00:37:23 10° NNE 00:42:42 70° ESE 00:43:40 57° SSE
Cosmos 1023 Rocket 4.4 00:40:11 10° NNW 00:45:27 86° ENE 00:46:29 59° SSE
SEDSat Delta rocket 4.3 00:47:49 35° SSE 00:47:49 35° SSE 00:51:59 10° E
NOSS 3-2 (A) 3.6 00:50:34 42° SSE 00:51:57 54° ESE 00:57:39 10° NE
CZ-2C R/B 4.3 00:48:42 10° NE 00:53:02 27° E 00:57:14 11° SSE
Cosmos 220 Rocket 4.0 00:53:32 81° NNW 00:53:32 81° NNW 00:57:49 10° NNE
OAO 2 Rocket 3.9 00:53:42 40° WNW 00:55:15 55° N 01:00:29 10° ENE
CZ-2D R/B 4.3 00:53:00 10° NNE 00:57:17 49° E 00:58:38 36° SSE
SL-16 R/B 3.9 01:00:16 22° WNW 01:00:16 22° WNW 01:03:28 10° NW
IRS-1D 4.4 00:54:16 10° N 00:59:00 34° WNW 00:59:00 34° WNW
CZ-3B R/B 3.7 01:02:29 11° ESE 01:02:29 11° ESE 01:02:44 10° ESE
Cosmos 1140 Rocket 3.4 00:57:52 10° NNW 01:03:02 65° WSW 01:03:58 54° SSW
OAO 1 Rocket 4.4 01:03:18 52° W 01:04:35 79° NNW 01:09:57 10° ENE
IDEFIX/ARIANE 42P 2.8 00:59:55 10° N 01:04:59 50° WNW 01:05:40 47° W
USA 238 DEB 4.0 01:02:11 28° S 01:05:27 55° ESE 01:11:55 10° NE
USA 238 4.1 01:02:17 28° S 01:05:33 54° ESE 01:12:01 10° NE
SL-08 R/B 4.2 01:01:14 10° SSE 01:05:46 47° ENE 01:10:14 10° N
Cosmos 1300 3.4 01:02:37 10° NNW 01:05:22 42° NW 01:05:22 42° NW
BREEZE-M DEB (TANK) 4.4 01:06:49 14° NW 01:06:49 14° NW 01:08:14 10° N
Timation 1 Rocket 4.5 01:01:47 10° NNW 01:07:31 49° WSW 01:08:34 44° SW
Cosmos 1346 Rocket 3.5 01:06:33 37° SE 01:07:39 49° E 01:11:26 10° NNE
Aureole 2 Rocket 4.4 01:05:44 10° NNE 01:07:52 21° ENE 01:09:30 13° ESE
ADEOS Rocket 3.5 01:04:42 29° S 01:08:35 61° W 01:16:12 10° NNW
Cosmos 2322 Rocket 2.9 01:05:37 24° S 01:08:46 50° ESE 01:14:14 10° NNE
Meteor 1-24 Rocket 4.0 01:12:45 42° WSW 01:13:44 46° W 01:18:59 10° N
Meteor 2-10 Rocket 4.0 01:11:13 10° N 01:16:50 67° E 01:22:12 10° SSE
Cosmos 1892 Rocket 3.6 01:15:27 34° S 01:17:13 74° E 01:21:33 10° N
OAO 3 Copernicus 4.2 01:16:10 47° WSW 01:17:37 83° SSE 01:22:40 10° ENE
COSMOS 2441 4.5 01:15:59 10° N 01:20:48 58° WNW 01:22:17 40° SW
Cosmos 2263 Rocket 3.2 01:15:36 10° N 01:21:03 47° ENE 01:26:29 10° SE
Cosmos 1455 4.2 01:19:09 10° NNE 01:22:32 29° E 01:25:55 10° SE
ADEOS II 3.9 01:19:54 10° NNW 01:22:55 16° WNW 01:23:07 16° WNW
ARIANE 5 R/B 2.7 01:21:36 10° N 01:26:33 52° WNW 01:28:23 35° SW
Cosmos 1190 Rocket 4.3 01:22:13 10° NNW 01:27:09 43° WSW 01:29:01 31° SSW
CENTAUR R/B 2.4 01:25:29 26° SSW 01:28:39 72° ESE 01:34:58 10° NNE
Cosmos 1513 Rocket 4.4 01:22:55 10° N 01:29:06 90° SE 01:35:10 10° S
Okean 1-7 Rocket 4.2 01:27:01 13° S 01:30:53 58° E 01:35:22 10° NNE
Cosmos 2360 Rocket 3.2 01:26:25 10° S 01:31:43 43° ESE 01:37:03 10° NE
Cosmos 1464 Rocket 3.9 01:28:06 10° N 01:34:17 89° W 01:40:32 10° S
CZ-4B R/B 4.2 01:34:10 10° N 01:38:45 36° WNW 01:40:45 26° WSW
Cosmos 2058 Rocket 3.9 01:37:49 10° N 01:42:15 54° E 01:46:39 10° SSE
Atlas Centaur 2 2.7 01:38:16 24° WSW 01:42:58 66° SSE 01:49:09 10° E
Cosmos 2034 Rocket 4.2 01:38:01 10° N 01:44:21 76° E 01:50:36 10° S
Cosmos 1606 Rocket 3.7 01:41:28 10° NNW 01:45:47 54° W 01:49:32 13° SSW
Cosmos 1726 Rocket 3.4 01:41:28 10° N 01:45:51 74° W 01:50:14 10° S
CZ-2C R/B 2.8 01:43:06 10° N 01:47:08 82° WNW 01:50:12 17° SSW
USA 234 4.5 01:42:43 10° ENE 01:48:35 35° SE 01:54:24 10° S
Cosmos 2228 3.5 01:44:57 10° NNW 01:48:55 38° W 01:51:20 21° SSW
Cosmos 1980 Rocket 4.2 01:48:51 10° WNW 01:50:47 12° WNW 01:52:48 10° NW
Cosmos 676 Rocket 4.3 01:45:58 10° NNW 01:50:58 45° WSW 01:56:00 10° S
IUS-18 SRM-1 3.6 01:54:04 21° WSW 01:56:37 57° S 02:10:24 10° ESE
Cosmos 2227 4.1 01:55:47 10° NNW 02:01:26 83° WSW 02:07:01 10° SSE
Cosmos 1602 Rocket 4.2 02:03:03 10° S 02:07:16 58° E 02:11:33 10° NNE
Aureole 1 Rocket 3.7 02:05:00 10° N 02:08:42 56° ENE 02:13:26 10° SSE
Cosmos 1331 Rocket 4.3 02:06:24 13° SW 02:10:49 49° WNW 02:15:50 10° N
PAYLOAD A 4.4 02:07:18 10° N 02:11:36 37° WNW 02:15:43 11° SW
Cosmos 1441 Rocket 3.3 02:11:33 10° S 02:15:26 81° E 02:19:23 10° N
Cosmos 1626 Rocket 3.5 02:11:08 10° SSW 02:15:28 72° W 02:19:53 10° N
SWIFT 4.2 02:13:46 11° SSW 02:16:28 18° S 02:19:21 10° SE
FENGYUN 3A 3.7 02:14:11 10° N 02:19:30 65° WNW 02:24:49 10° SSW
NOSS 3-2 (C) 3.6 02:14:51 12° SW 02:19:40 50° WNW 02:25:30 10° NNE
Cosmos 2333 Rocket 3.0 02:18:04 10° S 02:23:38 53° ESE 02:29:14 10° NNE
Intelsat 5-3 Rocket 3.8 02:16:52 11° WSW 02:23:49 36° S 02:27:17 10° ESE
SL-8 R/B 4.3 02:19:57 10° SSW 02:24:34 53° SE 02:29:13 10° ENE
CZ-2C R/B 2.6 02:24:10 11° SW 02:25:14 13° SSW 02:26:43 10° S
SL-16 R/B 3.5 02:21:08 11° WSW 02:25:24 24° WNW 02:29:54 10° N
ASTEX 1 3.7 02:21:37 10° SSE 02:26:33 73° E 02:31:32 10° N
CZ-2C R/B 3.6 02:26:46 10° NNW 02:31:06 28° WNW 02:35:26 10° SW
SEDSat Delta rocket 3.3 02:28:14 10° WSW 02:33:31 82° SSE 02:38:05 10° E
CZ-4C R/B 4.1 02:33:01 10° SSE 02:36:06 44° ENE 02:39:08 10° N
GPS 2-14 Rocket1 4.4 02:35:16 10° SW 02:38:16 20° S 02:41:18 10° SE
ISS -3.6 02:35:14 10° NW 02:38:37 81° NE 02:41:59 10° SE
ALOS 2.9 02:35:49 10° N 02:40:05 37° WNW 02:44:21 10° SW
OAO 2 Rocket 4.1 02:35:17 10° WNW 02:40:32 58° N 02:45:46 10° E
Meteor 2-1 Rocket 4.5 02:35:21 10° NNW 02:40:42 46° W 02:45:57 10° SSW
Cosmos 1850 Rocket 4.4 02:36:40 10° NNW 02:41:39 41° W 02:46:37 10° S
